Flag for France Weather past 2 weeks in Reims, France

Now
50 °F

Clear.


Feels Like: 48 °F
Forecast: 39 / 56 °F
Wind: 6 mph from West

Location: Chalons-Vatry


UV Index: 3 (Moderate)

Visibility: N/A


Pressure: 29.98 "Hg

Humidity: 58%

Dew point: 36 °F

Location of ReimsLocation

Historic Weather in Reims

°F

Reims temperature yesterday

Maximum temperature yesterday: 64 °F (at 5:30 PM)
Minimum temperature yesterday: 32 °F (at 7:00 AM)
Average temperature yesterday: 50 °F

Past Weeks' High & Low Weather Summary

 TemperatureHumidityPressure
High72 °F (Apr 7, 3:30 PM)100% (Apr 5, 6:30 AM)30.36 "Hg (Apr 5, 6:30 AM)
Low32 °F (Apr 15, 6:30 AM)27% (Apr 17, 4:30 PM)29.56 "Hg (Apr 3, 2:30 AM)
Average52 °F72%30.09 "Hg
* Reported Midnight between Apr 2 and Apr 3 — Apr 18 12:30 AM, Reims, Weather by CustomWeather, © 2014

Note: Actual official high and low records may vary slightly from our data, if they occured in-between our weather recording intervals... More about our weather records

Advertising

Historic Weather Conditions — Data for Previous 24 hours

 ConditionsComfort  
Time TempWeatherWind HumidityBarometerVisibility
12:30 AM
Apr 18
50 °FClear.5 mph62%29.98 "HgN/A
12:00 AM50 °FClear.7 mph62%29.98 "HgN/A
11:30 PM
Apr 17
50 °FClear.7 mph62%30.01 "HgN/A
11:00 PM50 °FClear.7 mph62%30.01 "HgN/A
10:30 PM50 °FClear.6 mph62%30.01 "HgN/A
10:00 PM52 °FClear.6 mph62%30.01 "HgN/A
9:30 PM50 °FClear.7 mph67%30.04 "HgN/A
9:00 PM52 °FClear.7 mph62%30.04 "HgN/A
8:30 PM54 °FClear.6 mph58%30.01 "HgN/A
8:00 PM55 °FClear.7 mph59%30.04 "HgN/A
7:00 PM63 °FClear.7 mph39%30.04 "HgN/A
6:30 PM64 °FClear.5 mph32%30.07 "HgN/A
6:00 PM64 °FClear.5 mph30%30.07 "HgN/A
5:30 PM64 °FClear.2 mph30%30.07 "HgN/A
5:00 PM63 °FClear.3 mph34%30.09 "HgN/A
4:30 PM63 °FClear.2 mph27%30.09 "HgN/A
4:00 PM63 °FClear.6 mph30%30.12 "HgN/A
3:30 PM61 °FClear.5 mph34%30.12 "HgN/A
3:00 PM63 °FClear.3 mph32%30.12 "HgN/A
2:30 PM61 °FClear.3 mph29%30.12 "HgN/A
2:00 PM61 °FClear.3 mph31%30.15 "HgN/A
1:30 PM59 °FClear.2 mph36%30.15 "HgN/A
1:00 PM57 °FClear.3 mph39%30.15 "HgN/A
12:30 PM57 °FClear.5 mph39%30.18 "HgN/A
12:00 PM57 °FClear.1 mph39%30.18 "HgN/A
11:30 AM55 °FClear.3 mph41%30.18 "HgN/A
11:00 AM55 °FClear.5 mph47%30.21 "HgN/A
10:30 AM52 °FClear.5 mph54%30.21 "HgN/A
10:00 AM50 °FClear.7 mph58%30.21 "HgN/A
9:30 AM46 °FClear.5 mph62%30.21 "HgN/A
9:00 AM41 °FClear.3 mph76%30.21 "HgN/A
8:30 AM39 °FClear.3 mph81%30.24 "HgN/A
8:00 AM37 °FClear.3 mph81%30.21 "HgN/A
7:30 AM34 °FClear.5 mph87%30.24 "HgN/A
7:00 AM32 °FClear.5 mph93%30.24 "HgN/A
6:30 AM34 °FClear.5 mph81%30.21 "HgN/A
6:00 AM34 °FClear.5 mph87%30.21 "HgN/A
5:30 AM34 °FClear.7 mph87%30.24 "HgN/A
5:00 AM36 °FClear.7 mph81%30.24 "HgN/A
4:30 AM39 °FClear.7 mph70%30.24 "HgN/A
4:00 AM39 °FClear.9 mph70%30.24 "HgN/A
3:30 AM39 °FClear.7 mph70%30.24 "HgN/A
3:00 AM41 °FClear.10 mph66%30.24 "HgN/A
2:30 AM41 °FClear.12 mph66%30.24 "HgN/A
2:00 AM43 °FClear.12 mph61%30.27 "HgN/A
1:30 AM43 °FClear.12 mph61%30.27 "HgN/A
1:00 AM45 °FClear.10 mph57%30.27 "HgN/A
Weather by CustomWeather, © 2014

See weather overview